Location: Bad Salzschlirf
(50.3750°N, 9.3000°E)
Time: 17:44:21
(UTC+02:00)

ISS - Pass Details

Date: 26 May 2020
Orbit: 417 x 420 km, 51.6° (Epoch: 26 May)

Event Time Altitude Azimuth Distance (km) Brightness Sun altitude
Rises 23:55:36 0° 287° (WNW) 2,368 0.6 -16.1°
Reaches altitude 10° 23:57:46 10° 280° (W) 1,502 -0.6 -16.2°
Maximum altitude 00:00:59 43° 208° (SSW) 601 -3.3 -16.4°
Enters shadow 00:01:21 41° 188° (S) 621 -3.4 -16.4°
